Weather History for Wolf Point, MT

Change the Weather History Date:

Wednesday, April 3, 2013

  Actual Average Record
Temperature  
Mean Temperature 42 °F -  
Max Temperature 52 °F 53 °F 66 °F (2012)
Min Temperature 32 °F 25 °F 0 °F (2002)
Degree Days  
Heating Degree Days 23    
Cooling Degree Days 0    
Moisture  
Dew Point 29 °F    
Average Humidity 62    
Maximum Humidity 85    
Minimum Humidity 44    
Precipitation  
Precipitation 0.00 in 0.02 in 0.20 in (2001)
Month to date precipitation 0.00 0.06  
Year to date precipitation 0.73 1.04  
Sea Level Pressure  
Sea Level Pressure 30.04 in    
Wind  
Wind Speed 6 mph (NNW)    
Max Wind Speed 21 mph    
Max Gust Speed 25 mph    
Visibility 10 miles    
Events      
T = Trace of Precipitation, MM = Missing Value Source: NWS Daily Summary

Daily Weather History Graph

Daily Weather History Graph

Search for Another Location

Airport:

Trip Planner

Search our weather history database for the weather conditions in past years. The results will help you decide how hot, cold, wet, or windy it might be!

Date:

Astronomy

Apr. 03, 2013 Rise Set
Actual Time 6:35 AM MDT 7:35 PM MDT
Civil Twilight 6:04 AM MDT 8:07 PM MDT
Nautical Twilight 5:26 AM MDT 8:45 PM MDT
Astronomical Twilight 4:46 AM MDT 9:26 PM MDT
Moon 2:48 AM MDT (4/3) 12:22 PM MDT (4/3)
Length of Visible Light 14h 03m
Length of Day
13h 00m
Last Quarter, 44% of the Moon is Illuminated
Apr 3
Last Quarter
Apr 10
New
Apr 18
First Quarter
Apr 25
Full
May 2
Last Quarter

Hourly Weather History & Observations

Time (MDT) Temp. Windchill Dew Point Humidity Pressure Visibility Wind Dir Wind Speed Gust Speed Precip Events Conditions
12:53 AM 39.0 °F - 30.9 °F 73% 29.91 in 10.0 mi Calm Calm - N/A   Mostly Cloudy
1:53 AM 45.0 °F - 28.9 °F 53% 29.86 in 10.0 mi Calm Calm - N/A   Mostly Cloudy
2:53 AM 44.1 °F 41.5 °F 28.9 °F 55% 29.85 in 10.0 mi West 4.6 mph - N/A   Overcast
3:53 AM 37.0 °F - 30.0 °F 76% 29.85 in 10.0 mi Calm Calm - N/A   Partly Cloudy
4:53 AM 35.1 °F 32.2 °F 28.9 °F 78% 29.85 in 10.0 mi WNW 3.5 mph - N/A   Clear
5:53 AM 33.1 °F - 28.9 °F 85% 29.85 in 10.0 mi Calm Calm - N/A   Clear
6:53 AM 36.0 °F 32.1 °F 30.0 °F 79% 29.86 in 10.0 mi WSW 4.6 mph - N/A   Clear
7:53 AM 41.0 °F 34.3 °F 30.9 °F 67% 29.88 in 10.0 mi West 11.5 mph - N/A   Clear
8:53 AM 48.0 °F - 36.0 °F 63% 29.91 in 10.0 mi West 10.4 mph - N/A   Clear
9:53 AM 51.1 °F - 37.0 °F 59% 29.94 in 10.0 mi NW 12.7 mph - N/A   Clear
10:10 AM 48.2 °F - 35.6 °F 62% 29.92 in 10.0 mi NNW 17.3 mph 24.2 mph N/A   Partly Cloudy
10:53 AM 45.0 °F 38.5 °F 36.0 °F 71% 30.02 in 10.0 mi North 13.8 mph - N/A   Mostly Cloudy
11:53 AM 44.1 °F 35.7 °F 34.0 °F 68% 30.08 in 10.0 mi North 20.7 mph - N/A   Mostly Cloudy
12:53 PM 48.0 °F - 35.1 °F 61% 30.08 in 10.0 mi NNE 15.0 mph 25.3 mph N/A   Overcast
1:53 PM 48.0 °F - 32.0 °F 54% 30.12 in 10.0 mi North 12.7 mph - N/A   Overcast
2:53 PM 50.0 °F - 30.9 °F 48% 30.14 in 10.0 mi North 12.7 mph - N/A   Partly Cloudy
3:53 PM 48.0 °F - 28.9 °F 48% 30.17 in 10.0 mi North 17.3 mph - N/A   Scattered Clouds
4:53 PM 46.0 °F 39.0 °F 25.0 °F 44% 30.19 in 10.0 mi North 17.3 mph - N/A   Mostly Cloudy
5:53 PM 45.0 °F 37.9 °F 24.1 °F 44% 30.20 in 10.0 mi NNW 16.1 mph - N/A   Overcast
6:53 PM 42.1 °F 35.7 °F 23.0 °F 47% 30.21 in 10.0 mi North 11.5 mph - N/A   Scattered Clouds
7:53 PM 39.9 °F - 21.0 °F 47% 30.21 in 10.0 mi Calm Calm - N/A   Clear
8:53 PM 36.0 °F 33.3 °F 23.0 °F 59% 30.22 in 10.0 mi Variable 3.5 mph - N/A   Clear
9:53 PM 36.0 °F 33.3 °F 24.1 °F 62% 30.23 in 10.0 mi NNE 3.5 mph - N/A   Overcast
10:53 PM 35.1 °F - 26.1 °F 70% 30.25 in 10.0 mi Calm Calm - N/A   Overcast
11:53 PM 34.0 °F - 28.0 °F 79% 30.25 in 10.0 mi Calm Calm - N/A   Overcast